Location: Observatorio Las Palmas
(29.0667°N, 110.9333°W)
Time: 23:23:07
(UTC-07:00)

Hubble Space Telescope - Visible Passes

Search period start: 22 March 2017 00:00
Search period end: 01 April 2017 00:00
Orbit: 538 x 542 km, 28.5° (Epoch: 21 March)

Date Brightness Start Highest point End Pass type
(mag) Time Alt. Az. Time Alt. Az. Time Alt. Az.
23 Mar 3.3 04:27:52 13° SSE 04:27:52 13° SSE 04:29:42 10° SE visible
24 Mar 3.2 04:18:35 16° SE 04:18:35 16° SE 04:20:24 10° ESE visible
24 Mar 1.4 05:54:36 10° WSW 05:58:36 48° SSE 06:02:36 10° E visible
25 Mar 3.2 04:09:14 17° SE 04:09:14 17° SE 04:10:49 10° ESE visible
25 Mar 1.2 05:44:36 10° WSW 05:48:35 57° SSE 05:52:39 10° E visible
26 Mar 3.3 03:59:49 17° ESE 03:59:49 17° ESE 04:01:05 10° E visible
26 Mar 0.9 05:35:11 14° WSW 05:38:35 65° S 05:42:42 10° E visible
27 Mar 3.5 03:50:22 15° ESE 03:50:22 15° ESE 03:51:16 10° E visible
27 Mar 0.8 05:25:44 19° WSW 05:28:36 73° S 05:32:43 10° E visible
28 Mar 3.7 03:40:53 13° E 03:40:53 13° E 03:41:24 10° E visible
28 Mar 0.7 05:16:15 24° WSW 05:18:37 79° S 05:22:45 10° E visible
29 Mar 4.0 03:31:23 11° E 03:31:23 11° E 03:31:28 10° E visible
29 Mar 0.7 05:06:45 31° W 05:08:38 83° S 05:12:46 10° E visible
30 Mar 0.7 04:57:15 40° W 04:58:39 84° S 05:02:48 10° E visible
31 Mar 0.6 04:47:46 53° W 04:48:40 83° S 04:52:48 10° E visible
